Station NBLP1 - 8548989 - Newbold, PA Image indicating link to RSS feed of recent meteorological observations for station NBLP1


Conditions at NBLP1 as of
(11:30 pm EDT on 04/14/2024)
0330 GMT on 04/15/2024:
     

Click on the graph icon in the table below to see a time series plot of the last five days of that observation.

5-day plot - Wind Direction Wind Direction (WDIR): SW ( 230 deg true )
5-day plot - Wind Speed Wind Speed (WSPD): 2.9 kts
5-day plot - Wind Gust Wind Gust (GST): 5.1 kts
5-day plot - Atmospheric Pressure Atmospheric Pressure (PRES):29.76 in
5-day plot - Air Temperature Air Temperature (ATMP): 62.4 °F
5-day plot - Water Temperature Water Temperature (WTMP): 54.0 °F
5-day plot - Wind Speed at 10 Meters Wind Speed at 10 meters (WSPD10M): 3.9 kts
5-day plot - Wind Speed at 20 Meters Wind Speed at 20 meters (WSPD20M): 3.9 kts
5-day plot -  Wind Speed, Wind Gust and Atmospheric Pressure Combined plot of Wind Speed, Gust, and Air Pressure
NOS Water Level Observation Network Water Level
Previous observations
TIME
(EDT)
5-day plot - Wind Direction
WDIR
 
5-day plot - Wind Speed
WSPD
kts
5-day plot - Wind Gust
GST
kts
5-day plot - Wave Height
WVHT
ft
5-day plot - Dominant Wave Period
DPD
sec
5-day plot - Average Wave Period
APD
sec
5-day plot - Mean Wave Direction
MWD
 
5-day plot - Atmospheric Pressure
PRES
in
5-day plot - Pressure Tendency
PTDY
in
5-day plot - Air Temperature
ATMP
°F
5-day plot - Water Temperature
WTMP
°F
5-day plot - Dew Point
DEWP
°F
5-day plot - Salinity
SAL
psu
5-day plot - Visibility
VIS
nmi
5-day plot - Tide (above MLLW)
TIDE
ft
2024-04-14 11:24 pmSSW 4.1 7.0----29.75- 62.8 54.0----
2024-04-14 11:18 pmSSW 7.0 12.0----29.75- 62.6 54.0----
2024-04-14 11:12 pm S 8.9 11.1----29.73- 61.9 54.0----
2024-04-14 11:06 pm S 7.0 8.9----29.75- 61.7 54.0----
2024-04-14 11:00 pm S 6.0 8.0----29.76+0.10 61.5 54.0----
2024-04-14 10:54 pm S 6.0 8.0----29.76- 61.2 54.0----
2024-04-14 10:48 pm S 7.0 8.9----29.77- 60.6 54.0----
2024-04-14 10:42 pm S 6.0 8.0----29.78- 60.4 54.0----
2024-04-14 10:36 pm S 5.1 7.0----29.78- 60.6 54.0----
2024-04-14 10:30 pm S 5.1 5.1----29.79- 61.0 54.0----
2024-04-14 10:24 pm SW 1.9 2.9----29.80- 61.5 54.0----
2024-04-14 10:18 pm NW 1.9 5.1----29.81- 62.1 54.0----
2024-04-14 10:12 pm NW 6.0 11.1----29.83- 62.4 54.0----
2024-04-14 10:06 pm NW 8.0 12.0----29.84- 63.0 54.0----
2024-04-14 10:00 pm NW 8.0 14.0----29.84+0.19 63.3 54.0----
2024-04-14 09:54 pm NW 8.9 13.0----29.84- 63.7 54.0----
2024-04-14 09:48 pm NW 8.0 13.0----29.83- 64.2 54.0----
2024-04-14 09:42 pm NW 11.1 20.0----29.84- 64.9 54.0----
2024-04-14 09:36 pmNNW 9.9 15.0----29.84- 66.0 54.0----
2024-04-14 09:30 pm NW 9.9 18.1----29.84- 66.2 54.0----
2024-04-14 09:24 pmNNW 13.0 22.9----29.83- 67.1 54.0----
2024-04-14 09:18 pmNNW 18.1 25.1----29.82- 70.0 54.0----
2024-04-14 09:12 pm NW 19.0 28.9----29.80- 70.7 54.0----
2024-04-14 09:06 pm SW 13.0 18.1----29.70- 70.9 54.0----
2024-04-14 09:00 pm SW 12.0 20.0----29.69+0.02 70.7 54.0----
2024-04-14 08:54 pm SW 11.1 19.0----29.68- 70.9 54.0----
2024-04-14 08:48 pm SW 12.0 17.1----29.68-- 54.0----
2024-04-14 08:42 pmSSW 8.9 17.1----29.68-- 54.0----
2024-04-14 08:36 pm SW 12.0 17.1----29.68-- 54.0----
2024-04-14 08:30 pm-------29.68- 70.5 54.0----
2024-04-14 08:24 pm-------29.68- 70.7 54.0----
2024-04-14 08:18 pm SW 12.0 20.0------ 70.5 54.0----
2024-04-14 08:12 pm SW 9.9 15.9------ 70.9 54.0----
2024-04-14 08:06 pm SW 8.9 17.1------ 70.3 54.0----
2024-04-14 08:00 pm SW 11.1 15.9----29.66-0.02 70.9 54.0----
2024-04-14 07:54 pm SW 11.1 17.1----29.65- 70.7 54.0----
2024-04-14 07:48 pm SW 12.0 21.0----29.65- 70.7 54.0----
2024-04-14 07:42 pm SW 11.1 18.1----29.64- 70.9 54.0----
2024-04-14 07:36 pm SW 12.0 22.0----29.64- 71.4 54.0----
2024-04-14 07:30 pmSSW 12.0 20.0----29.64- 71.4 53.8----
2024-04-14 07:24 pmSSW 17.1 26.0----29.64- 71.6 53.8----
2024-04-14 07:00 pm SW 14.0 27.0----29.65-0.07- 53.8----
2024-04-14 06:54 pm SW 15.9 21.0----29.65-- 53.8----
2024-04-14 06:48 pm SW 20.0 24.1----29.65- 72.3 53.8----
2024-04-14 06:42 pm SW 14.0 21.0----29.65- 72.3 53.8----
2024-04-14 06:36 pm SW 15.0 24.1----29.66- 72.1 53.8----
2024-04-14 06:30 pm SW 14.0 19.0----29.66- 72.3 53.8----
2024-04-14 06:24 pm SW 12.0 18.1----29.67- 73.0 53.8----
2024-04-14 06:18 pm SW 18.1 25.1----29.67- 73.2 53.8----
2024-04-14 06:12 pm SW 13.0 20.0----29.67- 72.3 53.8----
2024-04-14 06:06 pm SW 14.0 22.9----29.67- 72.7 53.8----
2024-04-14 06:00 pm SW 15.9 20.0----29.67-0.09 72.9 53.8----
2024-04-14 05:54 pm SW 17.1 27.0----29.67- 72.7 53.8----
2024-04-14 05:48 pmSSW 14.0 22.9----29.68-- 53.8----
2024-04-14 05:42 pm SW 18.1 26.0----29.67-- 53.8----
2024-04-14 05:36 pm SW 20.0 27.0----29.68-- 53.8----
2024-04-14 05:30 pm SW 18.1 24.1----29.68-- 54.0----
2024-04-14 05:24 pmSSW 17.1 25.1----29.68-- 54.0----
2024-04-14 05:18 pm SW 15.9 25.1----29.68- 73.0 54.0----
2024-04-14 05:12 pmSSW 14.0 22.0----29.68- 73.0 54.0----
2024-04-14 05:06 pm SW 11.1 20.0----29.68- 73.0 54.1----
2024-04-14 05:00 pmWSW 14.0 25.1----29.68-0.12 72.5 54.1----
2024-04-14 04:54 pm SW 14.0 22.0----29.69- 73.4 54.1----
2024-04-14 04:48 pmSSW 14.0 26.0----29.69- 72.9 54.3----
2024-04-14 04:42 pmSSW 14.0 21.0----29.70- 73.0 54.3----
2024-04-14 04:36 pmSSW 13.0 19.0----29.70- 73.2 54.3----
2024-04-14 04:30 pm SW 15.0 25.1----29.70- 72.7 54.3----
2024-04-14 04:24 pm SW 14.0 22.0----29.70- 72.7 54.3----
2024-04-14 04:18 pmWSW 17.1 27.0----29.71- 72.3 54.3----
2024-04-14 04:12 pm SW 14.0 24.1----29.71- 72.3 54.3----
2024-04-14 04:06 pmSSW 14.0 25.1----29.72- 71.8 54.3----
2024-04-14 04:00 pmSSW 15.9 25.1----29.71-0.15 71.6 54.3----
2024-04-14 03:54 pm SW 18.1 22.0----29.71- 71.6 54.3----
2024-04-14 03:48 pmSSW 15.0 22.9----29.72- 71.8 54.3----
2024-04-14 03:42 pmSSW 17.1 28.9----29.72- 71.4 54.3----
2024-04-14 03:36 pm SW 21.0 26.0----29.72- 70.9 54.3----
2024-04-14 03:30 pmWSW 20.0 25.1----29.73- 69.8 54.3----
2024-04-14 03:24 pm SW 15.0 22.0----29.74- 71.1 54.3----
2024-04-14 03:18 pmSSW 20.0 27.0----29.74- 71.1 54.3----
2024-04-14 03:12 pm SW 19.0 26.0----29.75- 70.9 54.3----
2024-04-14 03:06 pm SW 20.0 28.0----29.75- 70.7 54.3----
2024-04-14 03:00 pm SW 20.0 27.0----29.76-0.15------
2024-04-14 02:54 pm SW 21.0 29.9----29.76-------
2024-04-14 02:48 pm SW 15.0 25.1----29.76- 71.1 54.5----
2024-04-14 02:42 pmSSW 14.0 19.0----29.77- 70.7 54.5----
2024-04-14 02:36 pm SW 15.0 24.1----29.77- 70.3 54.5----
2024-04-14 02:30 pmSSW 8.9 18.1----29.78- 70.7 54.3----
2024-04-14 02:24 pmSSW 12.0 19.0----29.78- 70.3 54.3----
2024-04-14 02:18 pmSSW 15.9 22.9----29.78- 70.0 54.3----
2024-04-14 02:12 pmSSW 8.9 19.0----29.79- 70.0 54.3----
2024-04-14 02:06 pmSSW 14.0 22.0----29.80- 69.6 54.3----
2024-04-14 02:00 pm S 14.0 19.0----29.80-0.15 69.3 54.3----
2024-04-14 01:54 pm SW 13.0 18.1----29.81- 69.4 54.3----
2024-04-14 01:48 pm SW 11.1 21.0----29.82- 68.9 54.3----
2024-04-14 01:42 pmSSW 15.0 20.0----29.83- 69.1 54.3----
2024-04-14 01:36 pmSSW 11.1 15.9----29.83- 68.7 54.1----
2024-04-14 01:30 pm SW 14.0 22.0----29.84- 67.6 54.1----
2024-04-14 01:24 pmWSW 12.0 17.1----29.85- 67.6 54.1----
2024-04-14 01:18 pm SW 11.1 15.0----29.85- 67.3 54.1----
2024-04-14 01:12 pm S 12.0 18.1----29.86- 67.5 54.1----
2024-04-14 01:06 pm SW 8.9 15.9----29.86- 66.6 54.1----
2024-04-14 01:00 pmSSW 9.9 15.0----29.87-0.11 66.9 54.1----
2024-04-14 12:54 pm S 9.9 19.0----29.87- 66.6 54.1----
2024-04-14 12:48 pmSSW 11.1 18.1----29.88-- 54.0----
2024-04-14 12:42 pmWSW 14.0 18.1----29.89-- 54.0----
2024-04-14 12:36 pmWSW 18.1 21.0----29.90-- 54.0----
2024-04-14 12:30 pmWSW 18.1 22.9----29.91-- 54.0----
2024-04-14 12:24 pmWSW 15.9 19.0----29.91-- 54.0----
2024-04-14 12:18 pm SW 12.0 25.1----29.90- 64.8 54.0----
2024-04-14 12:12 pmWSW 17.1 22.0----29.90- 64.6 54.0----
2024-04-14 12:06 pmSSW 14.0 21.0----29.90- 64.8 54.0----
2024-04-14 12:00 pmWSW 12.0 17.1----29.91-0.08 63.7 54.0----
2024-04-14 11:54 am W 14.0 19.0----29.92- 64.0 54.0----
2024-04-14 11:48 am W 13.0 18.1----29.93- 63.1 54.0----
2024-04-14 11:42 amWSW 12.0 19.0----29.94- 61.9 54.0----
2024-04-14 11:36 amWSW 14.0 20.0----29.94- 62.6 54.0----
2024-04-14 11:30 amWSW 15.9 21.0----29.94-- 54.0----
2024-04-14 11:24 amWSW 15.9 19.0----29.95-- 54.0----
2024-04-14 11:18 amWSW 15.9 19.0----29.95-- 54.0----
2024-04-14 11:12 amWSW 12.0 19.0----29.95-- 54.0----
2024-04-14 11:06 amWSW 15.0 18.1----29.96-- 54.0----
2024-04-14 11:00 amWSW 12.0 14.0----29.96-0.06 61.0 54.0----
2024-04-14 10:54 am W 9.9 14.0----29.96- 61.5 54.0----
2024-04-14 10:48 am W 12.0 18.1----29.96- 61.3 54.0----
2024-04-14 10:42 amWSW 12.0 15.9----29.96- 60.4 54.0----
2024-04-14 10:36 amWSW 14.0 15.9----29.96- 59.9 54.0----
2024-04-14 10:30 am W 12.0 15.0----29.96- 60.3 54.0----
2024-04-14 10:24 amWSW 9.9 17.1----29.96- 59.9 54.0----
2024-04-14 10:18 amWSW 11.1 15.0----29.96- 59.2 54.0----
2024-04-14 10:12 amWSW 12.0 15.0----29.96- 59.0 54.0----
2024-04-14 10:06 amWSW 13.0 19.0----29.97- 58.6 54.0----
2024-04-14 10:00 amWSW 14.0 20.0----29.97-0.02- 54.0----
2024-04-14 09:54 amWSW 13.0 15.9----29.97-- 54.0----
2024-04-14 09:48 amWSW 13.0 15.9----29.98- 57.9 54.0----
2024-04-14 09:42 amWSW 12.0 15.9----29.98- 57.6 54.0----
2024-04-14 09:36 amWSW 12.0 14.0----29.98- 57.6 54.0----
2024-04-14 09:30 amWSW 12.0 15.0----29.98-- 54.0----
2024-04-14 09:24 amWSW 11.1 12.0----29.99-- 54.0----
2024-04-14 09:18 amWSW 9.9 11.1----29.99- 56.7 54.0----
2024-04-14 09:12 amWSW 9.9 12.0----29.99- 56.3 54.0----
2024-04-14 09:06 amWSW 8.0 9.9----29.99- 55.9 54.0----
2024-04-14 09:00 amWSW 7.0 9.9----30.00- 55.6 54.0----
2024-04-14 08:54 amWSW 7.0 8.9----30.00- 55.2 54.0----
2024-04-14 08:48 am-------30.00- 54.9 54.0----
2024-04-14 08:42 am-------30.00- 55.0 54.0----
2024-04-14 08:36 am-------30.00- 54.3 54.0----
2024-04-14 08:30 amWSW 6.0 8.9----30.00-- 54.0----
2024-04-14 08:24 amWSW 8.0 9.9----30.01-- 54.0----
2024-04-14 08:18 am SW 7.0 8.9----30.01- 52.9 54.0----
2024-04-14 08:12 amWSW 6.0 8.9----30.01- 52.2 54.0----
2024-04-14 08:06 amWSW 8.0 9.9----30.01- 51.8 54.0----
2024-04-14 08:00 amWSW 7.0 8.9----30.01+0.03- 54.0----
2024-04-14 07:54 am SW 8.0 11.1----30.01-- 54.0----
2024-04-14 07:48 amWSW 7.0 8.9----30.01-- 54.0----
2024-04-14 07:42 am SW 2.9 5.1----30.00-- 54.0----
2024-04-14 07:36 am SW 4.1 6.0----30.00-- 54.0----
2024-04-14 07:30 am SW 4.1 5.1----30.00- 49.6 54.1----
2024-04-14 07:24 am SW 4.1 7.0----30.00- 49.3 54.1----
2024-04-14 07:18 amWSW 5.1 6.0----30.00-------
2024-04-14 07:12 amWSW 1.9 4.1----30.01-------
2024-04-14 07:06 am SW 1.9 2.9----30.00-------
2024-04-14 07:00 am S 1.9 2.9----30.00+0.02 49.3 54.1----
2024-04-14 06:54 amSSW 1.9 2.9----30.00- 48.9 54.1----
2024-04-14 06:48 am SW 1.9 4.1----30.00-- 54.1----
2024-04-14 06:42 amWSW 4.1 6.0----30.00-- 54.1----
2024-04-14 06:36 amWSW 4.1 5.1----29.99-- 54.1----
2024-04-14 06:30 am SW 2.9 4.1----29.99- 48.6 54.1----
2024-04-14 06:24 am SW 4.1 5.1----29.98- 48.7 54.1----
2024-04-14 06:18 am SW 2.9 5.1----29.98- 48.7 54.1----
2024-04-14 06:12 am SW 4.1 5.1----29.98- 48.6 54.1----
2024-04-14 06:06 am SW 2.9 4.1----29.98- 48.6 54.1----
2024-04-14 06:00 am SW 2.9 4.1------ 48.7-----
2024-04-14 05:54 am SW 2.9 4.1------ 48.9-----
2024-04-14 05:48 amWSW 1.9 2.9------ 48.9 54.1----
2024-04-14 05:42 amWSW 1.9 4.1------ 48.7 54.1----
2024-04-14 05:36 am SW 1.9 5.1------ 48.7 54.1----
2024-04-14 05:30 am SW 2.9 4.1----29.98-- 54.1----
2024-04-14 05:24 amWSW 1.9 2.9----29.98-- 54.1----
2024-04-14 05:18 amWSW 1.9 2.9----29.98- 48.4 54.1----
2024-04-14 05:12 am W 1.9 2.9----29.98- 48.4 54.1----
2024-04-14 05:06 amWSW 1.9 2.9----29.98- 48.4 54.1----
2024-04-14 05:00 amWSW 1.9 4.1----29.98+0.02 48.4 54.3----
2024-04-14 04:54 am SW 1.9 2.9----29.98- 48.2 54.3----
2024-04-14 04:48 am SW 1.9 2.9----29.98- 48.7 54.3----
2024-04-14 04:42 am SW 1.9 4.1----29.98- 48.9 54.3----
2024-04-14 04:36 am SW 2.9 5.1----29.98- 49.3 54.5----
2024-04-14 04:30 am SW 4.1 5.1----29.98- 49.5 54.5----
2024-04-14 04:24 am SW 4.1 5.1----29.98- 49.5 54.5----
2024-04-14 04:18 am W 1.9 1.9----29.98- 49.3 54.7----
2024-04-14 04:12 am W 1.9 4.1----29.98- 49.5 54.7----
2024-04-14 04:06 amWNW 2.9 4.1----29.98- 49.8 54.7----
2024-04-14 04:00 amWNW 2.9 5.1----29.98+0.02 49.8 54.7----
2024-04-14 03:54 am W 2.9 4.1----29.98- 49.8 54.7----
2024-04-14 03:48 am W 2.9 4.1----29.98- 50.0 54.7----
2024-04-14 03:42 am SW 4.1 5.1----29.98- 50.2 54.9----
2024-04-14 03:36 am SW 4.1 6.0----29.97- 50.4 54.9----
2024-04-14 03:30 amWSW 1.9 2.9----29.97- 49.6 54.9----
2024-04-14 03:24 am W 2.9 5.1----29.96- 50.0 54.9----
2024-04-14 03:18 amWNW 2.9 4.1----29.96- 50.2 54.9----
2024-04-14 03:12 am W 1.9 2.9----29.96- 50.0 54.9----
2024-04-14 03:06 am W 1.9 2.9----29.96- 50.2 54.9----
2024-04-14 03:00 am W 1.9 4.1----29.96+0.02 50.5 54.9----
2024-04-14 02:54 am W 4.1 5.1----29.96- 50.9 54.9----
2024-04-14 02:48 am W 2.9 4.1----29.96- 50.7 54.9----
2024-04-14 02:42 am W 2.9 4.1----29.96- 50.9 54.9----
2024-04-14 02:36 am W 1.9 4.1----29.96- 50.5 54.9----
2024-04-14 02:30 am W 2.9 5.1----29.96- 50.7 54.9----
2024-04-14 02:24 am W 2.9 4.1----29.96- 50.7 54.9----
2024-04-14 02:18 am W 2.9 5.1----29.96- 51.1 55.0----
2024-04-14 02:12 am W 2.9 4.1----29.96- 51.1 55.0----
2024-04-14 02:06 amWSW 4.1 5.1----29.96- 51.3 55.0----
2024-04-14 02:00 am W 2.9 5.1----29.96+0.04 51.6 55.0----
2024-04-14 01:54 am W 4.1 5.1----29.96- 52.0 55.0----
2024-04-14 01:48 am W 4.1 7.0----29.96- 52.2 55.0----
2024-04-14 01:42 am W 5.1 8.0----29.96- 52.3 55.0----
2024-04-14 01:36 am W 5.1 8.0----29.96- 52.3 55.0----
2024-04-14 01:30 am W 4.1 7.0----29.96- 52.3 55.0----
2024-04-14 01:24 am W 5.1 8.9----29.96- 52.3 55.0----
2024-04-14 01:18 amWNW 6.0 11.1----29.96- 52.5 55.0----
2024-04-14 01:12 amWNW 7.0 12.0----29.95- 52.7 55.0----
2024-04-14 01:06 amWNW 5.1 7.0----29.95- 52.2 55.0----
2024-04-14 01:00 am W 5.1 8.9----29.95+0.05 52.2 55.0----
2024-04-14 12:54 am W 5.1 7.0----29.95- 52.0 55.0----
2024-04-14 12:48 am W 5.1 8.0----29.95- 52.2 55.0----
2024-04-14 12:42 am W 5.1 7.0----29.95- 52.2 55.0----
2024-04-14 12:36 am W 5.1 8.0----29.95- 52.3 55.0----
2024-04-14 12:30 am W 6.0 8.0----29.95- 52.5 55.0----
2024-04-14 12:24 am W 6.0 8.9----29.95- 52.5 55.0----
2024-04-14 12:18 am W 7.0 9.9----29.94- 52.7 55.0----
2024-04-14 12:12 am W 7.0 11.1----29.95- 52.7 55.0----
2024-04-14 12:06 am W 7.0 9.9----29.94- 52.5 55.2----
2024-04-14 12:00 am W 5.1 8.9----29.94+0.06 52.2 55.2----
2024-04-13 11:54 pm W 5.1 8.9----29.94- 52.3 55.2----